Temp
15 15 14 14 14 13 13 13 12 13 13 14 13 12 12 12 13 13 13 13 13 12 12 11 10 11 10 11 10 11 12 12 12 12 12 13 13 12 12 11 11 11 11
16 15 15 14 14 13 13 13 12 13 13 13 12 12 11 12 12 13 13 13 12 11 11 12 9 9 9 11 10 12 13 12 13 13 12 12 12 12 12 11 11 11 11
15 15 15 14 13 13 12 12 12 11 12 11 11 11 11 11 12 12 12 12 11 10 11 8 9 9 8 9 10 12 12 12 13 12 12 12 12 12 12 12 11 11 11
16 15 14 14 14 13 13 12 12 11 11 11 11 10 11 11 12 12 12 12 12 10 9 9 8 8 9 9 10 12 12 12 12 12 12 12 12 12 12 11 11 11 11
15 15 14 13 12 12 13 12 11 11 11 11 10 11 11 10 12 11 11 11 11 11 9 9 8 8 8 8 11 12 12 12 12 12 12 12 12 12 11 11 11 11 11
15 15 14 13 13 12 12 11 11 11 11 11 10 10 11 10 11 11 11 11 11 11 10 9 8 8 8 8 9 11 12 12 12 12 12 12 12 11 11 11 11 11 10
14 14 12 13 12 12 12 12 11 11 11 11 10 10 10 10 10 12 12 11 11 10 9 9 9 9 8 9 8 11 11 11 11 12 11 11 11 11 11 11 11 11 11
13 13 13 12 12 11 11 11 11 11 10 11 10 9 10 9 10 11 11 11 11 10 10 9 9 9 9 10 11 11 11 11 11 12 11 11 11 11 11 11 10 10 10
13 13 13 12 11 11 11 11 11 11 11 10 10 10 9 10 10 11 11 11 11 10 10 10 10 10 10 10 11 12 12 12 12 12 12 11 11 11 11 11 11 10 10
13 12 11 11 11 11 11 11 11 11 11 11 10 10 11 11 11 10 11 11 11 10 10 10 10 10 10 10 10 11 11 11 12 12 12 11 11 11 11 11 10 10 10
12 12 12 11 10 11 10 11 11 10 10 10 10 10 11 12 12 11 10 10 11 11 11 10 10 10 10 10 11 11 10 11 11 11 12 12 11 11 11 11 10 10 10
11 11 11 10 10 10 10 11 11 11 11 10 10 10 11 11 11 11 11 11 11 11 11 10 10 10 10 10 10 10 10 10 11 11 11 11 11 11 11 11 11 11 10
12 11 11 10 10 11 10 11 10 11 10 10 10 10 10 12 12 12 12 11 11 11 11 11 11 10 10 10 10 10 11 11 11 11 11 11 11 11 11 11 11 10 10
13 12 11 10 10 10 10 10 10 10 10 10 10 10 10 11 12 13 12 12 10 10 10 11 11 11 11 11 11 11 11 11 11 11 11 11 11 11 11 11 11 10 10
12 11 10 10 10 10 10 10 10 10 10 10 10 10 10 10 12 12 12 12 13 10 10 11 11 11 11 11 11 11 11 10 10 11 11 11 11 11 11 11 11 10 10
11 11 10 11 10 10 10 10 10 10 10 10 10 10 10 10 11 11 11 12 13 12 11 11 11 12 12 11 11 10 11 11 11 11 11 11 11 11 10 10 10 9 9
11 10 10 10 10 10 10 10 10 10 10 10 10 9 9 10 11 11 12 12 12 12 12 11 11 11 11 10 11 11 10 10 11 11 11 11 10 10 10 9 9 9 9
10 9 9 9 9 10 10 10 10 10 10 10 10 9 9 9 10 10 12 12 12 12 11 11 11 11 11 11 11 11 10 10 10 10 10 9 9 9 9 9 9 9 9
9 9 9 9 9 9 10 10 10 9 10 10 9 9 9 9 10 11 12 12 12 12 11 10 10 11 11 11 11 11 11 11 10 9 9 9 10 10 9 9 8 9 9
9 9 9 9 9 9 9 10 10 10 9 9 9 9 10 9 10 10 10 10 10 10 9 10 10 10 10 10 10 10 11 10 9 8 8 8 8 8 9 9 8 9 8
9 9 9 9 9 9 9 9 9 9 9 9 9 9 9 9 9 9 9 9 9 9 9 9 9 9 9 9 9 9 10 9 8 8 8 8 8 8 8 8 8 8 7
9 9 9 9 9 9 9 9 9 9 9 9 9 9 8 8 8 8 7 7 8 8 8 9 9 8 8 9 9 9 9 8 8 8 8 7 8 7 7 6 6 6 5
9 9 9 8 8 9 8 8 8 8 8 8 8 8 8 8 8 7 7 8 8 8 8 7 7 7 8 8 8 8 8 8 8 7 7 6 6 6 5 4 3 2 2
9 9 9 9 9 9 9 8 8 8 8 8 8 8 8 8 8 8 8 7 7 7 7 7 7 7 7 7 7 7 7 6 6 5 5 4 4 3 2 2 1 0 -1
8 8 8 8 8 8 9 9 8 8 8 8 8 8 7 8 8 8 8 8 8 7 7 7 7 7 6 6 6 5 5 4 4 3 2 2 1 0 0 -0 -1 -2 -2
7 7 7 7 7 8 8 7 7 8 8 8 7 8 7 7 7 8 7 6 6 5 4 5 4 3 2 2 2 2 2 2 2 2 1 0 -0 -1 -2 -2 -3 -3 -4
Height
1500 1504 1507 1510 1512 1516 1518 1521 1525 1528 1531 1532 1537 1543 1545 1547 1549 1551 1553 1556 1558 1559 1560 1561 1563 1565 1566 1568 1570 1572 1573 1576 1578 1580 1582 1584 1587 1589 1591 1593 1594 1595 1596
1496 1499 1502 1506 1509 1512 1515 1519 1521 1525 1527 1529 1533 1539 1541 1545 1547 1549 1551 1553 1555 1556 1558 1559 1562 1564 1565 1567 1570 1571 1573 1575 1577 1580 1582 1584 1587 1589 1591 1592 1594 1595 1596
1491 1494 1497 1501 1504 1507 1511 1515 1519 1522 1524 1525 1529 1534 1538 1541 1544 1547 1549 1550 1553 1555 1556 1559 1561 1563 1566 1568 1569 1571 1573 1575 1577 1580 1582 1584 1586 1588 1590 1591 1593 1594 1595
1487 1490 1492 1495 1499 1502 1506 1509 1513 1517 1519 1521 1522 1527 1534 1537 1540 1543 1546 1548 1550 1553 1555 1556 1559 1562 1564 1566 1567 1570 1572 1575 1577 1579 1581 1583 1585 1588 1589 1591 1592 1593 1594
1482 1485 1488 1491 1495 1498 1501 1504 1508 1511 1515 1517 1518 1522 1530 1532 1537 1540 1544 1546 1548 1550 1553 1555 1558 1561 1563 1565 1566 1569 1571 1574 1576 1578 1580 1582 1584 1586 1587 1589 1591 1592 1593
1478 1480 1484 1486 1490 1494 1497 1500 1503 1507 1510 1511 1513 1520 1526 1528 1533 1537 1540 1544 1546 1548 1550 1553 1556 1559 1562 1564 1565 1567 1570 1572 1574 1576 1578 1580 1582 1584 1586 1587 1589 1590 1592
1473 1476 1479 1482 1485 1488 1492 1495 1499 1503 1503 1505 1508 1519 1524 1528 1531 1534 1538 1541 1544 1546 1548 1551 1554 1557 1560 1561 1563 1565 1568 1570 1572 1574 1576 1578 1580 1582 1584 1586 1588 1589 1590
1469 1472 1473 1476 1480 1484 1486 1489 1493 1497 1500 1501 1505 1513 1519 1525 1529 1530 1535 1539 1541 1543 1545 1548 1551 1554 1557 1558 1560 1563 1565 1568 1570 1572 1574 1577 1579 1581 1582 1584 1586 1587 1588
1464 1466 1468 1471 1475 1478 1480 1483 1487 1491 1492 1498 1501 1505 1511 1516 1524 1530 1532 1535 1538 1539 1542 1545 1548 1551 1553 1555 1558 1560 1562 1565 1568 1570 1573 1575 1577 1578 1580 1581 1583 1584 1585
1457 1460 1462 1465 1469 1472 1475 1477 1478 1485 1488 1493 1499 1502 1510 1512 1516 1526 1530 1532 1535 1536 1539 1542 1545 1547 1550 1552 1555 1557 1560 1563 1565 1568 1570 1572 1574 1576 1577 1579 1580 1581 1581
1451 1453 1456 1459 1462 1465 1469 1472 1476 1478 1482 1488 1493 1498 1504 1508 1511 1515 1521 1527 1531 1533 1535 1538 1541 1544 1546 1548 1551 1554 1557 1559 1562 1565 1566 1569 1570 1571 1572 1574 1575 1576 1576
1444 1447 1449 1452 1456 1459 1462 1466 1469 1472 1477 1482 1487 1492 1497 1501 1507 1512 1516 1521 1523 1526 1531 1534 1536 1539 1542 1544 1547 1550 1554 1557 1559 1561 1562 1564 1566 1567 1568 1570 1571 1572 1572
1437 1439 1442 1445 1448 1451 1454 1458 1461 1467 1472 1475 1482 1487 1492 1498 1504 1508 1513 1516 1519 1523 1528 1531 1533 1535 1538 1542 1544 1546 1548 1552 1555 1557 1559 1560 1562 1563 1565 1565 1566 1566 1566
1432 1435 1437 1440 1443 1445 1449 1451 1454 1460 1464 1468 1475 1482 1488 1494 1500 1504 1508 1511 1516 1520 1523 1525 1529 1532 1534 1537 1540 1542 1544 1547 1550 1552 1554 1556 1557 1559 1559 1560 1560 1560 1560
1427 1429 1432 1434 1436 1438 1440 1443 1447 1451 1456 1461 1468 1476 1482 1489 1498 1501 1505 1508 1509 1512 1517 1521 1524 1527 1531 1533 1536 1539 1541 1543 1546 1547 1549 1550 1551 1552 1552 1553 1553 1553 1554
1423 1425 1426 1427 1429 1431 1432 1436 1439 1440 1449 1455 1463 1469 1477 1484 1493 1498 1501 1502 1504 1509 1512 1516 1520 1523 1526 1530 1533 1535 1536 1539 1541 1542 1543 1544 1544 1544 1545 1545 1546 1546 1545
1418 1419 1421 1422 1423 1425 1425 1427 1431 1439 1444 1448 1455 1462 1472 1479 1486 1493 1496 1498 1501 1506 1509 1513 1517 1519 1522 1526 1528 1530 1532 1534 1535 1535 1537 1536 1537 1537 1537 1537 1537 1536 1535
1415 1414 1416 1417 1417 1417 1420 1424 1426 1433 1439 1445 1449 1455 1465 1475 1481 1488 1491 1494 1497 1502 1507 1509 1515 1516 1519 1521 1523 1524 1526 1527 1527 1526 1528 1527 1526 1526 1525 1525 1526 1526 1524
1411 1411 1413 1414 1413 1414 1417 1420 1425 1429 1435 1441 1444 1454 1462 1470 1476 1481 1485 1489 1494 1497 1500 1505 1508 1512 1514 1515 1516 1518 1519 1519 1519 1519 1517 1516 1516 1516 1516 1516 1515 1514 1514
1410 1411 1413 1413 1412 1413 1414 1417 1421 1426 1430 1436 1444 1451 1458 1465 1471 1475 1480 1486 1489 1492 1496 1499 1501 1503 1506 1508 1510 1509 1510 1510 1510 1508 1508 1507 1506 1506 1505 1505 1505 1505 1504
1409 1412 1413 1414 1414 1413 1414 1417 1421 1424 1430 1435 1443 1449 1455 1458 1464 1470 1474 1477 1481 1485 1488 1491 1494 1496 1498 1500 1500 1500 1501 1501 1501 1500 1499 1499 1498 1499 1498 1495 1495 1496 1495
1409 1412 1413 1415 1416 1417 1418 1420 1424 1423 1428 1434 1440 1445 1451 1455 1459 1462 1465 1469 1474 1478 1481 1483 1486 1487 1489 1490 1491 1491 1492 1492 1493 1491 1492 1490 1490 1489 1489 1488 1486 1485 1484
1409 1410 1410 1412 1414 1416 1418 1420 1423 1427 1431 1435 1439 1443 1447 1450 1453 1455 1460 1464 1467 1469 1472 1476 1478 1479 1480 1481 1482 1483 1484 1485 1485 1484 1482 1481 1480 1481 1480 1479 1478 1477 1477
1408 1408 1410 1411 1413 1415 1417 1418 1421 1424 1426 1430 1434 1437 1441 1443 1446 1449 1454 1457 1459 1462 1465 1467 1470 1471 1471 1472 1473 1474 1475 1474 1474 1476 1475 1475 1473 1474 1474 1473 1473 1472 1471
1408 1409 1409 1410 1413 1414 1416 1418 1420 1422 1424 1426 1429 1433 1435 1437 1441 1444 1447 1449 1451 1453 1455 1458 1460 1461 1463 1464 1465 1465 1466 1467 1467 1468 1468 1468 1469 1470 1469 1468 1468 1469 1468
1406 1407 1408 1410 1411 1413 1415 1417 1419 1420 1422 1424 1427 1430 1432 1434 1436 1439 1442 1443 1445 1446 1448 1452 1453 1454 1456 1457 1458 1459 1460 1461 1462 1461 1464 1466 1465 1467 1466 1465 1465 1465 1464
Wind_Speed
23 23 24 24 29 30 29 29 29 28 21 21 17 26 27 24 22 19 18 17 14 11 11 16 18 18 18 17 19 18 18 18 19 18 16 14 13 11 10 9 9 9 8
23 23 25 25 28 30 31 30 31 31 23 16 20 28 28 26 22 20 18 18 15 12 12 16 22 20 19 18 19 18 18 19 19 18 16 14 12 10 9 8 7 7 6
26 25 25 25 26 28 30 31 29 28 22 18 23 31 32 27 27 25 22 18 15 15 15 20 21 21 20 20 19 18 18 19 19 18 16 14 12 11 9 8 8 7 6
27 26 27 26 26 26 28 30 31 30 25 21 23 33 34 29 26 22 21 17 13 18 17 23 21 20 21 20 19 18 19 18 18 17 16 15 13 11 10 9 9 8 7
28 28 28 27 26 28 27 28 31 29 25 22 27 32 33 29 28 25 22 16 13 18 20 22 20 19 19 19 18 18 19 18 17 17 15 15 14 12 11 10 10 9 8
29 28 28 28 28 27 27 26 27 26 24 21 32 33 32 24 30 27 21 16 14 18 21 23 22 19 18 18 18 17 19 19 18 17 16 16 14 13 12 11 11 10 8
30 29 28 29 31 30 27 28 26 25 22 30 38 33 30 28 28 24 21 18 17 20 23 22 24 22 21 20 20 19 19 19 19 18 17 16 15 14 12 11 11 10 9
33 30 30 30 31 31 28 33 27 27 24 34 43 34 28 30 30 25 23 20 16 17 23 24 24 23 22 22 21 21 20 19 19 18 17 16 15 13 12 12 12 12 12
30 31 30 30 32 30 29 30 30 31 33 37 39 32 18 15 31 26 24 22 17 18 19 19 21 20 23 22 19 19 20 19 19 18 17 16 15 14 14 14 14 14 14
32 32 30 30 32 30 32 27 41 31 31 39 42 32 26 33 35 23 26 24 22 22 19 17 15 18 16 18 19 16 16 18 18 17 17 17 16 15 15 16 16 17 17
32 32 31 31 32 34 33 32 33 28 32 39 45 37 29 33 38 35 32 30 26 26 23 20 18 17 18 16 19 19 16 18 19 19 18 17 17 17 18 19 19 20 20
28 28 29 28 32 35 38 39 40 36 37 40 51 42 37 37 40 36 31 35 37 33 28 24 22 22 21 20 20 20 20 19 20 21 21 20 21 20 20 20 21 22 22
24 25 29 30 31 36 36 32 39 41 41 42 52 50 39 36 34 39 35 38 37 33 33 32 28 30 27 24 22 22 22 22 23 23 22 21 22 22 23 22 23 24 24
18 21 25 31 30 34 38 37 40 39 36 40 56 48 44 36 28 31 35 32 31 31 32 31 28 26 25 21 20 19 21 22 22 23 22 22 23 24 25 25 24 21 22
22 23 25 25 32 35 38 40 39 46 40 42 54 50 45 40 29 27 30 26 29 27 33 29 25 27 22 20 16 18 20 21 23 23 23 26 28 27 27 26 24 22 27
25 25 24 26 28 32 33 38 43 43 37 44 48 55 43 39 36 28 28 20 17 27 28 27 27 20 17 18 17 19 16 15 17 16 19 25 27 28 30 30 31 29 36
21 21 22 27 28 31 35 33 39 33 35 48 45 53 48 43 39 33 31 25 20 22 21 17 22 20 19 20 16 15 14 19 25 27 29 29 30 32 33 36 39 40 42
16 17 19 20 23 28 30 40 41 34 35 42 47 52 42 43 38 37 34 30 24 20 19 18 20 18 19 18 20 22 24 26 29 28 29 30 31 31 32 36 40 44 41
12 13 11 11 15 23 31 31 34 34 35 41 43 42 39 37 38 41 37 36 32 32 35 32 30 26 26 27 28 27 28 29 34 29 30 31 32 33 33 35 37 37 38
9 12 10 6 9 14 27 37 38 34 40 42 43 35 33 37 35 31 31 37 37 35 34 35 34 31 31 30 29 31 32 29 26 26 26 29 30 31 31 32 35 39 35
9 12 11 8 9 9 14 32 32 29 31 39 36 34 34 28 25 30 34 37 33 34 35 34 36 35 33 30 30 29 32 27 26 25 24 28 25 27 29 27 33 38 36
9 11 14 14 14 11 12 12 14 24 30 30 26 26 27 24 29 28 24 27 29 30 32 33 33 31 30 30 29 31 32 24 27 26 31 26 28 27 28 25 27 31 33
14 14 15 18 18 16 17 17 16 17 21 24 24 25 28 27 24 27 24 25 28 27 28 27 28 26 27 31 31 22 22 25 26 28 26 27 26 27 26 25 24 24 23
14 19 19 20 20 18 13 16 21 21 24 27 29 31 32 29 26 29 29 31 30 31 32 32 32 35 36 38 36 33 29 23 23 23 21 18 20 20 19 19 19 18 16
13 13 14 14 14 15 14 13 15 20 21 23 24 23 24 23 21 25 28 31 32 33 32 32 30 28 26 26 25 23 22 20 18 17 15 14 13 14 14 14 13 9 8
15 14 14 13 12 11 14 13 16 21 23 20 18 18 21 20 22 21 19 18 19 17 14 14 11 10 9 8 8 9 10 10 11 9 11 9 10 9 6 9 8 11 12
Wind_Direction
219 222 225 219 221 221 224 222 206 200 211 225 238 210 208 208 205 206 200 209 233 230 219 194 181 183 178 174 170 171 171 167 166 164 165 166 166 159 152 147 145 145 141
220 221 224 222 223 225 228 228 217 213 214 230 205 210 204 211 209 203 202 203 214 219 221 197 174 177 179 176 174 176 175 173 170 171 172 174 170 166 162 161 159 157 153
221 223 229 228 230 228 227 228 222 223 232 228 227 215 207 212 207 206 208 203 205 214 218 180 179 179 179 178 181 182 179 180 177 178 180 180 178 178 179 179 178 176 173
222 224 229 229 230 226 226 229 226 222 234 238 236 207 202 210 207 204 200 201 214 207 200 182 183 185 182 188 187 188 187 186 184 185 186 188 189 191 192 194 193 191 190
221 224 228 229 226 226 232 226 223 225 227 237 206 201 199 212 205 196 195 201 218 212 201 190 186 190 192 191 193 193 192 192 193 193 194 195 197 200 202 203 202 204 204
219 222 228 230 229 226 231 232 225 223 232 233 209 193 192 196 192 186 199 204 217 219 204 190 188 197 199 197 203 199 199 199 199 201 201 202 204 207 209 210 210 213 218
221 222 224 222 225 226 233 224 225 222 231 235 204 193 193 186 188 199 207 211 219 215 208 198 198 202 202 204 209 204 207 207 206 207 208 210 211 213 215 217 222 226 234
218 220 220 223 224 227 228 225 231 215 222 202 186 190 193 183 187 202 204 211 219 216 208 201 205 212 216 216 214 211 211 213 214 213 214 216 218 218 220 224 230 235 244
222 220 225 225 224 229 224 230 224 220 205 205 192 186 162 175 178 190 200 210 212 203 202 203 215 217 223 225 222 221 219 219 221 218 217 220 221 222 226 230 238 245 249
225 230 236 231 228 230 229 229 222 221 216 202 198 176 184 182 174 182 205 213 213 211 208 210 213 213 216 216 214 216 224 225 222 222 219 220 223 230 236 243 245 250 255
231 232 229 227 230 225 225 221 208 221 215 202 195 187 187 189 190 182 186 198 215 221 219 221 221 221 226 232 222 220 222 221 222 223 225 232 233 233 238 244 249 253 255
233 232 232 227 225 226 223 223 229 227 213 215 199 189 193 189 187 189 192 198 205 212 220 219 222 228 231 244 246 240 233 229 224 227 233 240 246 250 257 263 267 270 272
231 237 227 222 225 227 231 227 212 218 213 205 199 194 189 201 202 210 210 205 204 211 212 219 227 230 231 235 239 244 241 236 235 238 242 247 252 259 262 264 269 270 272
249 242 236 229 228 227 226 234 218 220 220 216 205 200 194 196 203 209 212 213 205 208 212 222 221 221 227 233 238 241 244 245 248 251 250 252 256 260 264 263 264 265 274
258 255 245 234 229 231 233 232 223 223 215 213 206 201 194 192 206 210 213 220 220 198 213 218 225 225 223 231 243 249 254 255 256 257 258 262 262 264 261 258 258 277 291
246 251 239 234 232 238 227 235 217 207 214 206 208 205 202 197 208 206 204 190 201 216 204 207 221 218 216 226 238 243 243 246 253 267 275 288 275 262 261 259 258 274 293
245 239 242 234 234 240 242 220 210 216 217 218 214 205 204 197 204 212 211 204 193 193 191 188 200 212 205 212 224 234 248 263 270 275 280 274 272 274 276 272 264 271 284
240 241 229 232 231 232 228 231 212 225 208 214 205 201 197 200 204 220 217 217 216 213 216 208 220 209 216 232 247 255 262 268 276 279 283 285 278 275 270 265 265 271 275
233 231 207 222 228 229 219 221 219 207 212 211 196 194 198 200 212 219 222 225 230 239 242 251 248 253 255 259 266 265 273 276 281 288 283 278 275 274 270 271 271 272 280
219 191 173 182 214 223 219 216 218 216 208 208 194 198 202 206 212 220 225 233 239 236 242 242 246 253 257 264 261 267 277 288 281 271 269 273 271 269 265 268 271 275 270
215 196 188 172 176 183 206 217 215 214 208 198 199 205 210 207 210 224 228 232 235 244 244 244 249 256 259 262 268 277 278 275 274 264 278 273 260 273 268 258 270 278 277
197 203 207 203 199 204 200 188 186 191 193 192 209 219 211 225 234 226 228 232 237 242 245 248 254 257 258 260 265 271 274 265 250 258 265 251 269 263 270 271 272 276 279
198 201 214 217 220 230 227 221 206 199 198 207 217 227 235 241 239 216 223 226 229 236 244 247 252 254 257 262 267 258 242 258 256 254 262 260 263 269 270 276 280 283 288
201 206 206 209 215 220 223 221 212 218 218 216 221 228 239 241 235 222 223 230 235 239 240 243 245 252 259 264 264 260 261 259 260 259 258 262 265 270 274 280 286 295 305
204 178 176 176 191 199 214 214 210 213 219 217 216 217 220 224 232 228 234 234 231 233 236 244 247 245 244 247 251 255 258 259 255 258 262 264 263 274 279 284 291 300 311
182 178 176 171 175 180 190 193 200 209 203 195 196 208 216 210 211 216 209 212 210 205 209 224 223 223 233 241 242 254 254 254 244 245 261 256 272 286 287 288 294 312 316